Location: Carson
(33.8314°N, 118.2820°W)
Time: 13:19:30
(UTC+00:00)

USA 234 - Pass Details

Date: 23 November 2020
Orbit: 1098 x 1110 km, 123.0° (Epoch: 17 January)

Event Time Altitude Azimuth Distance (km) Brightness Sun altitude
Rises 13:54:22 0° 35° (NE) 3,936 6.4 -8.4°
Reaches altitude 10° 13:57:04 10° 27° (NNE) 2,976 5.6 -7.8°
Maximum altitude 14:02:54 35° 325° (NW) 1,701 3.9 -6.7°
Drops below altitude 10° 14:08:42 10° 262° (W) 2,965 5.0 -5.6°
Sets 14:11:23 0° 254° (WSW) 3,919 5.7 -5.0°
